Wetterdaten: aktuell Mittwoch, 03.06.2020 01:55
Datum Zeit Temp. A. 5 cm .Temp Feuchte A. BlattFeu 1 BlattFeu 2 Luftdruck Regen Wind UV Solar Windchill Windben
03.06.2020 01:55 17,1 C 15,0 C 52 % 0 lf 0 lf 1009,4 hPa 0,0 l/m 5,2 km/h (1 Bft) 0,0 UV-I 0 W/m 17,1 C 11,3 km/h (2 Bft)
03.06.2020 01:52 17,1 C 15,6 C 52 % 0 lf 0 lf 1009,4 hPa 0,0 l/m 4,7 km/h (1 Bft) 0,0 UV-I 0 W/m 17,1 C 11,3 km/h (2 Bft)
03.06.2020 01:45 17,1 C 15,6 C 52 % 0 lf 0 lf 1009,5 hPa 0,0 l/m 5,9 km/h (2 Bft) 0,0 UV-I 0 W/m 17,1 C 11,3 km/h (2 Bft)
03.06.2020 01:40 17,2 C 15,6 C 52 % 0 lf 0 lf 1009,5 hPa 0,0 l/m 5,4 km/h (1 Bft) 0,0 UV-I 0 W/m 17,2 C 9,7 km/h (2 Bft)
03.06.2020 01:37 17,2 C 15,6 C 52 % 0 lf 0 lf 1009,5 hPa 0,0 l/m 4,5 km/h (1 Bft) 0,0 UV-I 0 W/m 17,2 C 12,9 km/h (3 Bft)
03.06.2020 01:30 17,3 C 15,0 C 51 % 0 lf 0 lf 1009,6 hPa 0,0 l/m 4,1 km/h (1 Bft) 0,0 UV-I 0 W/m 17,3 C 11,3 km/h (2 Bft)
03.06.2020 01:25 17,3 C 15,6 C 51 % 0 lf 0 lf 1009,7 hPa 0,0 l/m 3,5 km/h (1 Bft) 0,0 UV-I 0 W/m 17,3 C 9,7 km/h (2 Bft)
03.06.2020 01:23 17,4 C 15,6 C 50 % 0 lf 0 lf 1009,7 hPa 0,0 l/m 4,9 km/h (1 Bft) 0,0 UV-I 0 W/m 17,4 C 14,5 km/h (3 Bft)
03.06.2020 01:15 17,5 C 15,6 C 50 % 0 lf 0 lf 1009,8 hPa 0,0 l/m 5,0 km/h (1 Bft) 0,0 UV-I 0 W/m 17,5 C 11,3 km/h (2 Bft)
03.06.2020 01:10 17,6 C 15,6 C 50 % 0 lf 0 lf 1009,9 hPa 0,0 l/m 7,1 km/h (2 Bft) 0,0 UV-I 0 W/m 17,3 C 12,9 km/h (3 Bft)
03.06.2020 01:07 17,6 C 16,1 C 50 % 0 lf 0 lf 1009,9 hPa 0,0 l/m 6,4 km/h (2 Bft) 0,0 UV-I 0 W/m 17,6 C 12,9 km/h (3 Bft)
03.06.2020 01:00 17,7 C 16,1 C 50 % 0 lf 0 lf 1010,0 hPa 0,0 l/m 6,9 km/h (2 Bft) 0,0 UV-I 0 W/m 17,5 C 14,5 km/h (3 Bft)
03.06.2020 00:55 17,7 C 16,1 C 50 % 0 lf 0 lf 1010,0 hPa 0,0 l/m 6,7 km/h (2 Bft) 0,0 UV-I 0 W/m 17,6 C 14,5 km/h (3 Bft)
03.06.2020 00:52 17,7 C 16,1 C 50 % 0 lf 0 lf 1010,0 hPa 0,0 l/m 7,3 km/h (2 Bft) 0,0 UV-I 0 W/m 17,3 C 16,1 km/h (3 Bft)
03.06.2020 00:45 17,8 C 16,1 C 50 % 0 lf 0 lf 1010,1 hPa 0,0 l/m 8,5 km/h (2 Bft) 0,0 UV-I 0 W/m 16,8 C 17,7 km/h (3 Bft)
03.06.2020 00:40 17,8 C 16,1 C 50 % 0 lf 0 lf 1010,2 hPa 0,0 l/m 6,8 km/h (2 Bft) 0,0 UV-I 0 W/m 17,6 C 12,9 km/h (3 Bft)
03.06.2020 00:36 17,9 C 16,1 C 50 % 0 lf 0 lf 1010,2 hPa 0,0 l/m 7,2 km/h (2 Bft) 0,0 UV-I 0 W/m 17,5 C 14,5 km/h (3 Bft)
03.06.2020 00:30 17,9 C 16,1 C 50 % 0 lf 0 lf 1010,2 hPa 0,0 l/m 8,9 km/h (2 Bft) 0,0 UV-I 0 W/m 16,8 C 19,3 km/h (3 Bft)
03.06.2020 00:25 18,1 C 16,1 C 50 % 0 lf 0 lf 1010,2 hPa 0,0 l/m 6,9 km/h (2 Bft) 0,0 UV-I 0 W/m 17,9 C 14,5 km/h (3 Bft)
03.06.2020 00:24 18,1 C 16,1 C 50 % 0 lf 0 lf 1010,2 hPa 0,0 l/m 8,8 km/h (2 Bft) 0,0 UV-I 0 W/m 17,0 C 17,7 km/h (3 Bft)
03.06.2020 00:15 18,2 C 16,7 C 50 % 0 lf 0 lf 1010,3 hPa 0,0 l/m 9,4 km/h (2 Bft) 0,0 UV-I 0 W/m 16,9 C 17,7 km/h (3 Bft)
03.06.2020 00:10 18,3 C 16,7 C 51 % 0 lf 0 lf 1010,4 hPa 0,0 l/m 6,4 km/h (2 Bft) 0,0 UV-I 0 W/m 18,3 C 11,3 km/h (2 Bft)
03.06.2020 00:08 18,3 C 16,7 C 51 % 0 lf 0 lf 1010,3 hPa 0,0 l/m 6,4 km/h (2 Bft) 0,0 UV-I 0 W/m 18,3 C 9,7 km/h (2 Bft)
03.06.2020 00:07 18,4 C 17,2 C 51 % 0 lf 0 lf 1010,4 hPa 0,0 l/m 9,1 km/h (2 Bft) 0,0 UV-I 0 W/m 17,2 C 14,5 km/h (3 Bft)
03.06.2020 00:00 18,4 C 17,2 C 51 % 0 lf 0 lf 1010,4 hPa 0,0 l/m 9,5 km/h (2 Bft) 0,0 UV-I 0 W/m 17,1 C 16,1 km/h (3 Bft)
_ Min-Zeit 01:45 01:30 00:15 00:00 00:00 01:52 - 01:25 - - 00:30 00:08
Minimum _ 17,1 C 15,0 C 50 % 0 lf 0 lf 1009,4 hPa - 3,5 km/h (1 Bft) - - 16,8 C 9,7 km/h (2 Bft)
_ Max-Zeit 00:00 00:00 01:37 00:00 00:00 00:00 00:00 00:00 00:00 00:00 00:08 00:30
Maximum _ 18,5 C 17,2 C 52 % 0 lf 0 lf 1010,4 hPa 0,0 l/m 9,5 km/h
W (2 Bft)
0,0 UV-I 0 W/m 18,3 C 19,3 km/h
W-NW (3 Bft)
Durchschnitt _ 17,7 C 16,0 C 51 % 0 lf 0 lf 1009,9 hPa #0,0 l/m 6,8 km/h (2 Bft) 0,0 UV-I 0 W/m 17,3 C 14,1 km/h (3 Bft)